Volver al catálogo

FENGYUN 1C DEB

ActivoPO
NORAD 31323·DEBRIS·🇨🇳 China

Lanzado May 10, 1999 desde Taiyuan Satellite Launch Center

Loading…

Próximos Pases (próximas 24 horas)

TLE

EnvejeciendoSource: Space-Track

Época: Sep 6, 2026, 09:40 UTC

1 31323U 99025BQB 26249.40329534  .00001547  00000-0  62567-3 0  9996
2 31323  99.4013 313.6838 0030512  36.0396 324.2832 14.29223572678024

Sigue FENGYUN 1C DEB en tiempo real con AllMySat

Download on the App Store